Home   Weather   Romania   Craiova   Past weeks
Flag for Romania

Past Weather in Craiova, Romania — Yesterday and Last 2 Weeks

Currently: 75 °F. Sunny. (Weather station: Craiova Airport, Romania). See more current weather

Past Weather in Craiova — Graph

°F

Craiova Temperature Yesterday

Maximum temperature yesterday: 84 °F (at 3:30 pm)
Minimum temperature yesterday: 63 °F (at 5:00 am)
Average temperature yesterday: 75 °F

High & Low Weather Summary for the Past Weeks

 TemperatureHumidityPressure
High95 °F (Jun 10, 4:00 pm)100% (May 29, 7:30 am)30.04 "Hg (May 29, 7:30 am)
Low50 °F (May 29, 7:00 am)24% (Jun 8, 6:30 pm)29.62 "Hg (Jun 10, 7:00 pm)
Average74 °F61%29.88 "Hg
* Reported May 29 7:00 am — Jun 13 7:30 am, Craiova. Weather by CustomWeather, © 2024

Note: Actual official high and low records may vary slightly from our data, if they occured in-between our weather recording intervals... More about our weather records

Craiova Weather History for the Previous 24 Hours

Scroll right to see more
 ConditionsComfort  
Time TempWeatherWind HumidityBarometerVisibility
7:30 am
Thu, Jun 13
70 °FSunny.10 mph73%29.92 "Hg10 mi
7:00 am66 °FSunny.10 mph83%29.92 "Hg10 mi
6:30 am64 °FSunny.9 mph83%29.92 "Hg10 mi
6:00 am64 °FSunny.10 mph83%29.92 "Hg10 mi
5:30 am64 °FClear.9 mph83%29.92 "Hg10 mi
5:00 am66 °FClear.9 mph78%29.92 "Hg10 mi
4:30 am66 °FClear.10 mph83%29.92 "Hg10 mi
4:00 am68 °FClear.7 mph73%29.92 "Hg10 mi
3:30 am66 °FClear.5 mph78%29.92 "Hg10 mi
3:00 am66 °FClear.2 mph78%29.92 "Hg10 mi
2:30 am66 °FClear.2 mph78%29.92 "Hg10 mi
2:00 am68 °FClear.1 mph69%29.92 "Hg10 mi
1:00 am72 °FClear.7 mph65%29.92 "Hg10 mi
12:30 am72 °FClear.6 mph65%29.92 "Hg10 mi
12:00 am73 °FClear.6 mph61%29.92 "Hg10 mi
11:30 pm
Wed, Jun 12
73 °FClear.6 mph61%29.89 "Hg10 mi
11:00 pm73 °FClear.5 mph65%29.89 "Hg10 mi
10:30 pm75 °FClear.7 mph61%29.89 "Hg10 mi
10:00 pm75 °FClear.6 mph61%29.89 "Hg10 mi
9:30 pm77 °FClear.3 mph54%29.86 "Hg10 mi
9:00 pm79 °FSunny.5 mph51%29.86 "Hg10 mi
8:00 pm82 °FPassing clouds.6 mph45%29.86 "HgN/A
7:30 pm82 °FPassing clouds.7 mph45%29.86 "HgN/A
7:00 pm84 °FPassing clouds.8 mph43%29.86 "HgN/A
6:30 pm84 °FPassing clouds.6 mph43%29.86 "HgN/A
6:00 pm84 °FPassing clouds.6 mph43%29.86 "HgN/A
5:30 pm84 °FPassing clouds.7 mph43%29.86 "HgN/A
5:00 pm84 °FPassing clouds.6 mph43%29.86 "HgN/A
4:30 pm82 °FPassing clouds.6 mph55%29.86 "HgN/A
4:00 pm82 °FSprinkles. Passing clouds.10 mph42%29.89 "HgN/A
3:30 pm84 °FPassing clouds.6 mph37%29.83 "HgN/A
2:00 pm82 °FPassing clouds.5 mph40%29.86 "HgN/A
1:30 pm81 °FPassing clouds.8 mph39%29.89 "HgN/A
1:00 pm81 °FSunny.7 mph45%29.89 "Hg10 mi
12:30 pm81 °FPassing clouds.5 mph42%29.89 "HgN/A
12:00 pm82 °FPassing clouds.9 mph40%29.89 "HgN/A
11:30 am81 °FPassing clouds.8 mph48%29.89 "HgN/A
11:00 am79 °FPassing clouds.7 mph48%29.89 "HgN/A
10:30 am79 °FSunny.3 mph48%29.89 "Hg10 mi
10:00 am77 °FSunny.2 mph54%29.89 "Hg10 mi
Weather by CustomWeather, © 2024

See weather overview